This demonstration page uses our WeatherBlox Daily Observations layout. Learn more.

Left ArrowRight Arrow

Hourly Observations for May 5, 2022

Temp ( °F °C ) Dew Point ( °F °C ) Humidity (%) Winds ( mph kmh ) Pressure ( in mb ) Visibility ( mi km ) Precip ( " mm )
12:15 am 00:15 Cloudy 55 12.5 50 10.1 85 85 Calm 30.18 1022 10 16 0.00 0.00
12:35 am 00:35 Cloudy 54 12.4 50 10.2 87 87 Calm 30.16 1021 10 16 0.00 0.00
12:55 am 00:55 Cloudy 54 12.4 50 10.2 87 87 Calm 30.15 1021 10 16 0.00 0.00
1:15 am 01:15 Cloudy 54 12.2 50 9.9 86 86 E 5 7 30.14 1021 10 16 0.00 0.00
1:35 am 01:35 Cloudy 54 12 50 9.9 87 87 Calm 30.12 1020 10 16 0.00 0.00
1:55 am 01:55 Cloudy 54 12.1 50 10 87 87 Calm 30.12 1020 10 16 0.00 0.00
2:15 am 02:15 Cloudy 54 12 50 9.8 87 87 Calm 30.12 1020 10 16 0.00 0.00
2:35 am 02:35 Cloudy 54 12 49 9.7 86 86 Calm 30.14 1021 10 16 0.00 0.00
2:55 am 02:55 Cloudy 53 11.9 50 9.9 88 88 Calm 30.13 1020 10 16 0.00 0.00
3:15 am 03:15 Cloudy 53 11.8 50 9.8 88 88 Calm 30.13 1020 10 16 0.00 0.00
3:35 am 03:35 Cloudy 53 11.7 50 9.8 88 88 Calm 30.13 1020 10 16 0.00 0.00
3:55 am 03:55 Cloudy 53 11.6 50 9.8 89 89 Calm 30.14 1020 10 16 0.00 0.00
4:15 am 04:15 Cloudy 53 11.5 49 9.6 88 88 Calm 30.15 1021 10 16 0.00 0.00
4:35 am 04:35 Cloudy 53 11.5 49 9.7 89 89 Calm 30.15 1021 10 16 0.00 0.00
4:55 am 04:55 Cloudy 53 11.5 50 9.9 90 90 Calm 30.14 1021 10 16 0.00 0.00
5:10 am 05:10 Cloudy 53 11.5 50 9.8 89 89 Calm 30.15 1021 10 16 0.00 0.00
5:35 am 05:35 Cloudy 53 11.5 50 10 91 91 Calm 30.15 1021 10 16 0.00 0.00
5:55 am 05:55 Cloudy 53 11.5 50 9.8 89 89 Calm 30.15 1021 10 16 0.00 0.00
6:15 am 06:15 Cloudy 53 11.4 50 9.9 91 91 Calm 30.12 1020 7 11 0.00 0.00
6:35 am 06:35 Partly Cloudy 52 11.2 49 9.7 91 91 E 3 6 30.11 1020 7 11 0.00 0.00
6:55 am 06:55 Mostly Cloudy 52 11.1 49 9.4 89 89 E 7 11 30.11 1020 10 16 0.00 0.00
7:15 am 07:15 Mostly Cloudy 52 11 49 9.2 89 89 Calm 30.12 1020 7 11 0.00 0.00
7:35 am 07:35 Mostly Cloudy 52 11 48 8.8 86 86 ESE 8 13 30.13 1020 10 16 0.00 0.00
7:55 am 07:55 Cloudy 52 11 48 9 88 88 ESE 8 13 30.12 1020 10 16 0.00 0.00
8:15 am 08:15 Cloudy 52 11.1 48 9 87 87 ESE 9 15 30.12 1020 10 16 0.00 0.00
8:35 am 08:35 Mostly Cloudy 53 11.4 48 9.1 86 86 SE 10 17 30.11 1019 10 16 0.00 0.00
8:55 am 08:55 Mostly Cloudy 53 11.7 49 9.3 85 85 ESE 12 19 30.11 1020 10 16 0.00 0.00
9:15 am 09:15 Mostly Cloudy 53 11.7 48 9.1 84 84 SSE 6 9 30.14 1021 10 16 0.00 0.00
9:35 am 09:35 Cloudy 54 12.1 49 9.5 84 84 Calm 30.13 1020 10 16 0.00 0.00
9:55 am 09:55 Cloudy 55 12.5 49 9.4 82 82 E 12 19 30.10 1019 10 16 0.00 0.00
10:15 am 10:15 Cloudy 55 12.5 49 9.4 82 82 ESE 9 15 30.10 1019 10 16 0.00 0.00
10:35 am 10:35 Cloudy 55 12.5 49 9.3 81 81 ESE 12 19 30.10 1019 10 16 0.00 0.00
10:55 am 10:55 Cloudy 55 12.5 49 9.5 82 82 E 13 20 30.08 1019 10 16 0.00 0.00
11:15 am 11:15 Cloudy 55 12.8 49 9.4 80 80 ESE 6 9 30.10 1019 10 16 0.00 0.00
11:35 am 11:35 Cloudy 55 12.8 49 9.2 79 79 Calm 30.11 1020 10 16 0.00 0.00
11:55 am 11:55 Cloudy with Rain 55 12.7 49 9.7 82 82 Calm 30.10 1019 10 16 0.00 0.00
12:15 pm 12:15 Cloudy with Rain 54 12 50 10 88 88 ENE 12 19 30.00 1016 10 16 0.00 0.00
12:35 pm 12:35 Cloudy 55 12.5 50 10.2 86 86 Calm 30.04 1017 10 16 0.00 0.00
12:55 pm 12:55 Cloudy 55 12.6 51 10.4 87 87 Calm 30.05 1018 10 16 0.00 0.00
1:15 pm 13:15 Cloudy 55 12.5 51 10.3 87 87 E 10 17 30.03 1017 10 16 0.00 0.00
1:35 pm 13:35 Cloudy with Heavy Rain 55 12.5 51 10.5 88 88 E 3 6 30.06 1018 7 11 0.02 0.51
1:55 pm 13:55 Cloudy with Rain 54 12.1 52 10.9 92 92 Calm 30.07 1018 4 6 0.08 2.03
2:15 pm 14:15 Cloudy with Rain 54 12.1 52 11.2 94 94 Calm 30.06 1018 5 8 0.02 0.51
2:35 pm 14:35 Cloudy with Rain 54 12.2 53 11.5 96 96 E 6 9 30.04 1017 5 8 0.05 1.27
2:55 pm 14:55 Cloudy with Rain 54 12.2 53 11.6 96 96 E 9 15 30.02 1017 4 6 0.10 2.54
3:15 pm 15:15 Cloudy with Light Rain 54 12.2 53 11.6 96 96 E 13 20 29.99 1016 4 6 0.03 0.76
3:35 pm 15:35 Cloudy with Light Rain 54 12.2 53 11.6 96 96 E 13 20 29.98 1015 4 6 0.05 1.27
3:55 pm 15:55 Cloudy with Light Rain 54 12.2 53 11.6 96 96 E 12 19 29.97 1015 3 5 0.09 2.29
4:15 pm 16:15 Cloudy with Rain 54 12.2 53 11.6 96 96 E 12 19 29.94 1014 3 5 0.00 0.00
4:35 pm 16:35 Cloudy with Light Rain 55 12.5 53 11.8 96 96 E 17 28 29.93 1014 5 8 0.00 0.00
4:55 pm 16:55 Cloudy with Light Rain 55 12.5 53 11.7 95 95 E 13 20 29.91 1013 5 8 0.01 0.25
5:15 pm 17:15 Cloudy with Rain 55 12.5 53 11.7 95 95 ESE 15 24 29.91 1013 2 3 0.04 1.02
5:35 pm 17:35 Cloudy with Light Rain 54 12.2 53 11.6 96 96 ESE 10 17 29.92 1013 3 5 0.09 2.29
5:55 pm 17:55 Cloudy with Light Rain 54 12.3 53 11.7 96 96 Calm 29.92 1013 5 8 0.10 2.54
6:15 pm 18:15 Cloudy with Light Rain 54 12.3 53 11.7 96 96 Calm 29.92 1013 3 4 0.01 0.25
6:35 pm 18:35 Cloudy with Drizzle 54 12.3 53 11.8 97 97 ESE 8 13 29.93 1014 2 3 0.02 0.51
6:55 pm 18:55 Cloudy with Drizzle 55 12.5 53 11.8 96 96 E 6 9 29.91 1013 3 5 0.02 0.51
7:15 pm 19:15 Cloudy 54 12.3 53 11.7 96 96 ESE 14 22 29.90 1013 7 11 0.00 0.00
7:35 pm 19:35 Cloudy 54 12.4 53 11.8 96 96 E 10 17 29.90 1013 7 11 0.00 0.00
7:55 pm 19:55 Cloudy with Mist and Fog 54 12.4 53 11.7 96 96 ESE 8 13 29.89 1012 5 8 0.00 0.00
8:15 pm 20:15 Cloudy 54 12.3 53 11.7 96 96 ESE 10 17 29.89 1012 7 11 0.00 0.00
8:35 pm 20:35 Cloudy 55 12.5 53 11.7 95 95 E 8 13 29.89 1012 7 11 0.00 0.00
8:55 pm 20:55 Cloudy 55 12.5 53 11.7 95 95 Calm 29.88 1012 7 11 0.00 0.00
9:15 pm 21:15 Cloudy 55 12.5 53 11.7 95 95 Calm 29.88 1012 7 11 0.00 0.00
9:35 pm 21:35 Cloudy 55 12.5 53 11.7 95 95 E 9 15 29.87 1012 7 11 0.00 0.00
9:55 pm 21:55 Cloudy 55 12.5 53 11.7 95 95 Calm 29.86 1011 7 11 0.00 0.00
10:15 pm 22:15 Cloudy 55 12.5 53 11.8 96 96 Calm 29.86 1011 7 11 0.00 0.00
10:35 pm 22:35 Cloudy 55 12.5 54 12 97 97 ESE 7 11 29.86 1011 7 11 0.00 0.00
10:55 pm 22:55 Cloudy 55 12.5 54 12 97 97 Calm 29.86 1011 7 11 0.00 0.00
11:15 pm 23:15 Cloudy 55 12.6 54 12 96 96 Calm 29.86 1011 7 11 0.00 0.00
11:35 pm 23:35 Cloudy 55 12.6 54 12 96 96 ESE 8 13 29.84 1011 7 11 0.00 0.00
11:55 pm 23:55 Cloudy 55 12.6 54 12 96 96 Calm 29.83 1010 7 11 0.00 0.00

Powered by AerisWeather